Volver al catálogo

COSMOS 1481 DEB

ActivoHEO
NORAD 14192·DEBRIS·🇷🇺 Russia

Lanzado Jul 8, 1983 desde Plesetsk Cosmodrome

Loading…

Próximos Pases (próximas 24 horas)

TLE

ActualizadoSource: Space-Track

Época: Sep 9, 2026, 15:04 UTC

1 14192U 83070E   26252.62810734  .00000792  00000-0  00000-0 0  9991
2 14192  70.4231 231.6077 5636769 231.9686 348.8212  2.03132555241336

Sigue COSMOS 1481 DEB en tiempo real con AllMySat

Download on the App Store